STARLINK AM

Last updated on June 19, 2020, 12:02 a.m. UTC

1 45765U 20038AM  20170.75001157  .00114381  11275-4  14177-3 0  9997
2 45765  52.9995 271.8073 0111293  69.5193 147.9450 15.96184939  1956

Satellite is not in orbit.